Time,TemperatureF,DewpointF,PressureIn,WindDirection,WindDirectionDegrees,WindSpeedMPH,WindSpeedGustMPH,Humidity,HourlyPrecipIn,Conditions,Clouds,dailyrainin,SoftwareType,DateUTC
2013-02-07 00:00:00,20.7,19.0,30.04,NNE,28,7.0,11.5,93,0.00,,,0.00,VWS V14.01,2013-02-07 06:00:00,
2013-02-07 00:05:00,21.0,19.3,30.04,NNE,31,11.0,11.5,93,0.00,,,0.00,VWS V14.01,2013-02-07 06:05:00,
2013-02-07 00:10:00,21.2,19.5,30.04,NNE,30,9.0,11.5,93,0.00,,,0.00,VWS V14.01,2013-02-07 06:10:00,
2013-02-07 00:15:00,21.4,19.7,30.04,NNE,20,6.0,10.5,93,0.00,,,0.00,VWS V14.01,2013-02-07 06:15:00,
2013-02-07 00:20:00,21.5,19.8,30.04,NNE,23,6.0,9.4,93,0.00,,,0.00,VWS V14.01,2013-02-07 06:20:00,
2013-02-07 00:25:00,21.7,20.0,30.04,NNE,30,5.0,8.4,93,0.00,,,0.00,VWS V14.01,2013-02-07 06:25:00,
2013-02-07 00:30:00,21.9,20.4,30.04,NNE,22,5.0,7.3,94,0.00,,,0.00,VWS V14.01,2013-02-07 06:30:00,
2013-02-07 00:35:00,22.2,20.7,30.04,NNE,17,5.0,7.3,94,0.00,,,0.00,VWS V14.01,2013-02-07 06:35:00,
2013-02-07 00:40:00,22.5,21.0,30.05,North,360,7.0,7.3,94,0.00,,,0.00,VWS V14.01,2013-02-07 06:40:00,
2013-02-07 00:50:00,22.9,21.2,30.04,NNE,31,6.0,8.4,93,0.00,,,0.00,VWS V14.01,2013-02-07 06:50:00,
2013-02-07 00:55:00,23.0,21.3,30.05,NNE,23,4.0,8.4,93,0.00,,,0.00,VWS V14.01,2013-02-07 06:55:00,
2013-02-07 01:00:00,23.2,21.5,30.05,North,11,4.0,9.4,93,0.00,,,0.00,VWS V14.01,2013-02-07 07:00:00,
2013-02-07 01:05:00,23.3,21.6,30.05,North,355,7.0,9.4,93,0.00,,,0.00,VWS V14.01,2013-02-07 07:05:00,
2013-02-07 01:15:00,23.5,21.8,30.04,NNW,335,5.0,8.4,93,0.00,,,0.00,VWS V14.01,2013-02-07 07:15:00,
2013-02-07 01:20:00,23.5,21.8,30.04,NNW,340,6.0,10.5,93,0.00,,,0.00,VWS V14.01,2013-02-07 07:20:00,
2013-02-07 01:25:00,23.5,21.5,30.05,North,355,7.0,10.5,92,0.00,,,0.00,VWS V14.01,2013-02-07 07:25:00,
2013-02-07 01:30:00,23.5,21.5,30.05,North,355,9.0,9.4,92,0.00,,,0.00,VWS V14.01,2013-02-07 07:30:00,
2013-02-07 01:35:00,23.5,21.5,30.05,NNW,346,6.0,9.4,92,0.00,,,0.00,VWS V14.01,2013-02-07 07:35:00,
2013-02-07 01:40:00,23.5,21.5,30.05,North,355,7.0,9.4,92,0.00,,,0.00,VWS V14.01,2013-02-07 07:40:00,
2013-02-07 01:50:00,23.5,21.5,30.06,North,5,7.0,11.5,92,0.00,,,0.00,VWS V14.01,2013-02-07 07:50:00,
2013-02-07 02:00:00,23.4,21.4,30.06,NNE,22,6.0,10.5,92,0.00,,,0.00,VWS V14.01,2013-02-07 08:00:00,
2013-02-07 02:05:00,23.4,21.4,30.06,NNE,28,6.0,9.4,92,0.00,,,0.00,VWS V14.01,2013-02-07 08:05:00,
2013-02-07 02:10:00,23.4,21.4,30.06,North,355,7.0,10.5,92,0.00,,,0.00,VWS V14.01,2013-02-07 08:10:00,
2013-02-07 02:15:00,23.4,21.4,30.06,North,355,6.0,11.5,92,0.00,,,0.00,VWS V14.01,2013-02-07 08:15:00,
2013-02-07 02:25:00,23.4,21.4,30.06,North,9,7.0,10.5,92,0.00,,OVC013,0.00,VWS V14.01,2013-02-07 08:25:00,
2013-02-07 02:30:00,23.3,21.3,30.07,NE,42,6.0,11.5,92,0.00,,OVC013,0.00,VWS V14.01,2013-02-07 08:30:00,
2013-02-07 02:40:00,23.3,21.3,30.07,NNE,19,6.0,9.4,92,0.00,,OVC013,0.00,VWS V14.01,2013-02-07 08:40:00,
2013-02-07 02:45:00,23.3,21.3,30.08,North,360,6.0,8.4,92,0.00,,OVC013,0.00,VWS V14.01,2013-02-07 08:45:00,
2013-02-07 02:55:00,23.3,21.3,30.08,NNW,348,4.0,9.4,92,0.00,,OVC013,0.00,VWS V14.01,2013-02-07 08:55:00,
2013-02-07 03:00:00,23.2,21.5,30.08,North,355,6.0,8.4,93,0.00,,OVC013,0.00,VWS V14.01,2013-02-07 09:00:00,
2013-02-07 03:05:00,23.1,21.4,30.08,North,355,4.0,9.4,93,0.00,,OVC013,0.00,VWS V14.01,2013-02-07 09:05:00,
2013-02-07 03:15:00,23.1,21.4,30.07,North,360,3.0,9.4,93,0.00,,OVC013,0.00,VWS V14.01,2013-02-07 09:15:00,
2013-02-07 03:20:00,23.0,21.3,30.08,NW,325,6.0,7.3,93,0.00,,OVC013,0.00,VWS V14.01,2013-02-07 09:20:00,
2013-02-07 03:25:00,23.0,21.3,30.08,North,360,3.0,10.5,93,0.00,,OVC013,0.00,VWS V14.01,2013-02-07 09:25:00,
2013-02-07 03:30:00,22.9,21.2,30.08,NNW,346,4.0,7.3,93,0.00,,OVC013,0.00,VWS V14.01,2013-02-07 09:30:00,
2013-02-07 03:35:00,22.9,21.4,30.08,NNW,340,5.0,7.3,94,0.00,,OVC013,0.00,VWS V14.01,2013-02-07 09:35:00,
2013-02-07 03:40:00,22.8,21.3,30.08,NNW,346,8.0,9.4,94,0.00,,OVC013,0.00,VWS V14.01,2013-02-07 09:40:00,
2013-02-07 03:45:00,22.7,21.2,30.08,North,360,7.0,10.5,94,0.00,,OVC011,0.00,VWS V14.01,2013-02-07 09:45:00,
2013-02-07 03:50:00,22.7,21.2,30.08,NNW,348,7.0,11.5,94,0.00,,OVC011,0.00,VWS V14.01,2013-02-07 09:50:00,
2013-02-07 03:55:00,22.7,21.5,30.08,NNW,348,7.0,9.4,95,0.00,,OVC011,0.00,VWS V14.01,2013-02-07 09:55:00,
2013-02-07 04:00:00,22.6,21.4,30.08,NNW,344,5.0,7.3,95,0.00,,OVC011,0.00,VWS V14.01,2013-02-07 10:00:00,
2013-02-07 04:05:00,22.6,21.4,30.08,NNE,17,7.0,9.4,95,0.00,,OVC011,0.00,VWS V14.01,2013-02-07 10:05:00,
2013-02-07 04:15:00,22.6,21.4,30.09,North,9,6.0,10.5,95,0.00,,OVC011,0.00,VWS V14.01,2013-02-07 10:15:00,
2013-02-07 04:25:00,22.6,21.4,30.09,North,355,4.0,8.4,95,0.00,,OVC009,0.00,VWS V14.01,2013-02-07 10:25:00,
2013-02-07 04:30:00,22.6,21.4,30.09,North,5,5.0,10.5,95,0.00,,OVC009,0.00,VWS V14.01,2013-02-07 10:30:00,
2013-02-07 04:35:00,22.6,21.4,30.09,NNW,346,6.0,8.4,95,0.00,,OVC009,0.00,VWS V14.01,2013-02-07 10:35:00,
2013-02-07 04:45:00,22.6,21.4,30.09,North,355,5.0,9.4,95,0.00,,OVC009,0.00,VWS V14.01,2013-02-07 10:45:00,
2013-02-07 04:50:00,22.6,21.6,30.09,NNE,30,6.0,9.4,96,0.00,,OVC009,0.00,VWS V14.01,2013-02-07 10:50:00,
2013-02-07 04:55:00,22.6,21.6,30.09,NNE,24,7.0,10.5,96,0.00,,OVC009,0.00,VWS V14.01,2013-02-07 10:55:00,
2013-02-07 05:00:00,22.5,21.5,30.09,North,360,6.0,11.5,96,0.00,,OVC009,0.00,VWS V14.01,2013-02-07 11:00:00,
2013-02-07 05:10:00,22.5,21.5,30.08,NNE,27,6.0,10.5,96,0.00,,,0.00,VWS V14.01,2013-02-07 11:10:00,
2013-02-07 05:15:00,22.5,21.5,30.08,NNW,348,5.0,9.4,96,0.00,,,0.00,VWS V14.01,2013-02-07 11:15:00,
2013-02-07 05:20:00,22.5,21.5,30.08,NNW,334,8.0,10.5,96,0.00,,,0.00,VWS V14.01,2013-02-07 11:20:00,
2013-02-07 05:30:00,22.5,21.5,30.09,North,360,4.0,8.4,96,0.00,,,0.00,VWS V14.01,2013-02-07 11:30:00,
2013-02-07 05:40:00,22.5,21.5,30.09,North,5,4.0,7.3,96,0.00,,,0.00,VWS V14.01,2013-02-07 11:40:00,
2013-02-07 05:45:00,22.5,21.5,30.09,NE,42,7.0,10.5,96,0.00,,,0.00,VWS V14.01,2013-02-07 11:45:00,
2013-02-07 05:50:00,22.6,21.6,30.09,North,5,6.0,8.4,96,0.00,,,0.00,VWS V14.01,2013-02-07 11:50:00,
2013-02-07 06:00:00,22.6,21.6,30.09,North,350,4.0,8.4,96,0.00,,,0.00,VWS V14.01,2013-02-07 12:00:00,
2013-02-07 06:10:00,22.6,21.6,30.09,North,351,7.0,9.4,96,0.00,,,0.00,VWS V14.01,2013-02-07 12:10:00,
2013-02-07 06:15:00,22.6,21.6,30.09,North,5,3.0,8.4,96,0.00,,,0.00,VWS V14.01,2013-02-07 12:15:00,
2013-02-07 06:20:00,22.6,21.6,30.10,NNW,343,5.0,7.3,96,0.00,,,0.00,VWS V14.01,2013-02-07 12:20:00,
2013-02-07 06:25:00,22.6,21.6,30.10,NW,326,4.0,6.3,96,0.00,,,0.00,VWS V14.01,2013-02-07 12:25:00,
2013-02-07 06:35:00,22.6,21.6,30.11,NW,318,0.0,5.2,96,0.00,,,0.00,VWS V14.01,2013-02-07 12:35:00,
2013-02-07 06:40:00,22.6,21.6,30.11,NNW,333,3.0,6.3,96,0.00,,,0.00,VWS V14.01,2013-02-07 12:40:00,
2013-02-07 06:50:00,22.6,21.6,30.11,NW,315,5.0,6.3,96,0.00,,,0.00,VWS V14.01,2013-02-07 12:50:00,
2013-02-07 06:55:00,22.5,21.5,30.12,NW,325,2.0,6.3,96,0.00,,,0.00,VWS V14.01,2013-02-07 12:55:00,
2013-02-07 07:00:00,22.5,21.5,30.12,NW,323,3.0,6.3,96,0.00,,,0.00,VWS V14.01,2013-02-07 13:00:00,
2013-02-07 07:10:00,22.5,21.5,30.12,NNW,346,3.0,6.3,96,0.00,,,0.00,VWS V14.01,2013-02-07 13:10:00,
2013-02-07 07:15:00,22.4,21.4,30.11,North,349,4.0,7.3,96,0.00,,,0.00,VWS V14.01,2013-02-07 13:15:00,
2013-02-07 07:20:00,22.4,21.4,30.11,North,360,5.0,6.3,96,0.00,,,0.00,VWS V14.01,2013-02-07 13:20:00,
2013-02-07 07:30:00,22.4,21.4,30.12,NNW,348,5.0,5.2,96,0.00,,,0.00,VWS V14.01,2013-02-07 13:30:00,
2013-02-07 07:35:00,22.4,21.4,30.12,NNW,327,4.0,5.2,96,0.00,,,0.00,VWS V14.01,2013-02-07 13:35:00,
2013-02-07 07:45:00,22.4,21.4,30.12,NNW,346,5.0,6.3,96,0.00,,,0.00,VWS V14.01,2013-02-07 13:45:00,
2013-02-07 07:50:00,22.4,21.4,30.12,NNW,334,5.0,8.4,96,0.00,,,0.00,VWS V14.01,2013-02-07 13:50:00,
2013-02-07 07:55:00,22.4,21.4,30.13,NNW,338,6.0,8.4,96,0.00,,,0.00,VWS V14.01,2013-02-07 13:55:00,
2013-02-07 08:00:00,22.4,21.4,30.13,NNW,327,5.0,7.3,96,0.00,,,0.00,VWS V14.01,2013-02-07 14:00:00,
2013-02-07 08:10:00,22.4,21.4,30.13,NNW,348,6.0,9.4,96,0.00,,,0.00,VWS V14.01,2013-02-07 14:10:00,
2013-02-07 08:15:00,22.5,21.5,30.13,North,355,8.0,11.5,96,0.00,,,0.00,VWS V14.01,2013-02-07 14:15:00,
2013-02-07 08:20:00,22.5,21.5,30.14,NNW,337,5.0,11.5,96,0.00,,,0.00,VWS V14.01,2013-02-07 14:20:00,
2013-02-07 08:25:00,22.5,21.5,30.14,NNW,331,6.0,9.4,96,0.00,,,0.00,VWS V14.01,2013-02-07 14:25:00,
2013-02-07 08:35:00,22.6,21.6,30.15,North,360,6.0,9.4,96,0.00,,,0.00,VWS V14.01,2013-02-07 14:35:00,
2013-02-07 08:45:00,22.7,21.7,30.16,North,360,9.0,9.4,96,0.00,,,0.00,VWS V14.01,2013-02-07 14:45:00,
2013-02-07 08:50:00,22.8,21.8,30.16,NNW,346,5.0,10.5,96,0.00,,,0.00,VWS V14.01,2013-02-07 14:50:00,
2013-02-07 08:55:00,22.8,21.8,30.16,NNW,347,4.0,9.4,96,0.00,,,0.00,VWS V14.01,2013-02-07 14:55:00,
2013-02-07 09:00:00,22.9,21.9,30.16,NNE,12,4.0,8.4,96,0.00,,,0.00,VWS V14.01,2013-02-07 15:00:00,
2013-02-07 09:05:00,22.9,21.9,30.15,North,5,7.0,10.5,96,0.00,,,0.00,VWS V14.01,2013-02-07 15:05:00,
2013-02-07 09:15:00,23.0,22.0,30.16,North,355,4.0,8.4,96,0.00,,,0.00,VWS V14.01,2013-02-07 15:15:00,
2013-02-07 09:25:00,23.2,22.2,30.17,North,355,6.0,7.3,96,0.00,,,0.00,VWS V14.01,2013-02-07 15:25:00,
2013-02-07 09:30:00,23.3,22.3,30.17,NNW,340,4.0,8.4,96,0.00,,,0.00,VWS V14.01,2013-02-07 15:30:00,
2013-02-07 09:35:00,23.4,22.4,30.17,NNW,345,4.0,10.5,96,0.00,,,0.00,VWS V14.01,2013-02-07 15:35:00,
2013-02-07 09:40:00,23.5,22.5,30.17,North,5,4.0,10.5,96,0.00,,,0.00,VWS V14.01,2013-02-07 15:40:00,
2013-02-07 09:45:00,23.6,22.6,30.16,NE,43,6.0,9.4,96,0.00,,,0.00,VWS V14.01,2013-02-07 15:45:00,
2013-02-07 09:50:00,23.8,22.8,30.16,NNE,24,7.0,11.5,96,0.00,,,0.00,VWS V14.01,2013-02-07 15:50:00,
2013-02-07 09:55:00,23.9,22.9,30.16,NNE,13,7.0,9.4,96,0.00,,,0.00,VWS V14.01,2013-02-07 15:55:00,
2013-02-07 10:00:00,24.0,23.0,30.16,NE,36,7.0,11.5,96,0.00,,,0.00,VWS V14.01,2013-02-07 16:00:00,
2013-02-07 10:05:00,24.1,23.1,30.17,NE,48,8.0,12.6,96,0.00,,,0.00,VWS V14.01,2013-02-07 16:05:00,
2013-02-07 10:10:00,24.2,23.0,30.17,North,360,7.0,10.5,95,0.00,,,0.00,VWS V14.01,2013-02-07 16:10:00,
2013-02-07 10:15:00,24.3,23.1,30.17,ENE,58,7.0,10.5,95,0.00,,,0.00,VWS V14.01,2013-02-07 16:15:00,
2013-02-07 10:25:00,24.5,23.3,30.18,North,351,6.0,10.5,95,0.00,,,0.00,VWS V14.01,2013-02-07 16:25:00,
2013-02-07 10:30:00,24.6,23.4,30.18,North,350,8.0,11.5,95,0.00,,,0.00,VWS V14.01,2013-02-07 16:30:00,
2013-02-07 10:35:00,24.7,23.5,30.18,North,355,8.0,10.5,95,0.00,,,0.00,VWS V14.01,2013-02-07 16:35:00,
2013-02-07 10:40:00,24.9,23.7,30.19,North,355,7.0,10.5,95,0.00,,,0.00,VWS V14.01,2013-02-07 16:40:00,
2013-02-07 10:45:00,25.0,23.8,30.18,NNE,32,7.0,10.5,95,0.00,,,0.00,VWS V14.01,2013-02-07 16:45:00,
2013-02-07 10:50:00,25.1,23.9,30.19,North,355,7.0,11.5,95,0.00,,,0.00,VWS V14.01,2013-02-07 16:50:00,
2013-02-07 10:55:00,25.1,23.6,30.19,NNE,33,5.0,10.5,94,0.00,,,0.00,VWS V14.01,2013-02-07 16:55:00,
2013-02-07 11:00:00,25.3,23.8,30.19,North,351,6.0,11.5,94,0.00,,,0.00,VWS V14.01,2013-02-07 17:00:00,
2013-02-07 11:10:00,25.5,24.0,30.19,NE,40,6.0,10.5,94,0.00,,,0.00,VWS V14.01,2013-02-07 17:10:00,
2013-02-07 11:15:00,25.6,24.1,30.19,NNE,21,5.0,10.5,94,0.00,,,0.00,VWS V14.01,2013-02-07 17:15:00,
2013-02-07 11:20:00,25.7,24.2,30.19,NNE,18,5.0,9.4,94,0.00,,,0.00,VWS V14.01,2013-02-07 17:20:00,
2013-02-07 11:25:00,25.8,24.3,30.19,NE,38,7.0,9.4,94,0.00,,,0.00,VWS V14.01,2013-02-07 17:25:00,
2013-02-07 11:30:00,25.7,24.2,30.19,North,350,7.0,11.5,94,0.00,,,0.00,VWS V14.01,2013-02-07 17:30:00,
2013-02-07 11:35:00,25.6,24.1,30.19,NNE,12,7.0,11.5,94,0.00,,,0.00,VWS V14.01,2013-02-07 17:35:00,
2013-02-07 11:40:00,25.6,24.1,30.19,NNE,24,8.0,13.6,94,0.00,,,0.00,VWS V14.01,2013-02-07 17:40:00,
2013-02-07 11:45:00,25.6,24.1,30.19,NNW,346,9.0,11.5,94,0.00,,,0.00,VWS V14.01,2013-02-07 17:45:00,
2013-02-07 11:50:00,25.6,24.1,30.19,NNE,30,9.0,12.6,94,0.00,,,0.00,VWS V14.01,2013-02-07 17:50:00,
2013-02-07 11:55:00,25.6,24.1,30.18,NE,36,9.0,12.6,94,0.00,,,0.00,VWS V14.01,2013-02-07 17:55:00,
2013-02-07 12:00:00,25.6,24.1,30.18,NNE,32,10.0,11.5,94,0.00,,,0.00,VWS V14.01,2013-02-07 18:00:00,
2013-02-07 12:05:00,25.5,24.0,30.18,North,9,8.0,11.5,94,0.00,,,0.00,VWS V14.01,2013-02-07 18:05:00,
2013-02-07 12:10:00,25.6,24.1,30.18,North,355,9.0,11.5,94,0.00,,,0.00,VWS V14.01,2013-02-07 18:10:00,
2013-02-07 12:15:00,25.6,24.1,30.17,NNE,17,9.0,12.6,94,0.00,,,0.00,VWS V14.01,2013-02-07 18:15:00,
2013-02-07 12:25:00,25.7,24.2,30.17,NNE,12,10.0,12.6,94,0.00,,OVC007,0.00,VWS V14.01,2013-02-07 18:25:00,
2013-02-07 12:35:00,25.8,24.3,30.17,NNE,12,9.0,10.5,94,0.00,,OVC007,0.00,VWS V14.01,2013-02-07 18:35:00,
2013-02-07 12:40:00,25.9,24.4,30.17,NNE,32,10.0,14.7,94,0.00,,OVC007,0.00,VWS V14.01,2013-02-07 18:40:00,
2013-02-07 12:45:00,25.8,24.3,30.17,NE,34,11.0,13.6,94,0.00,,OVC007,0.00,VWS V14.01,2013-02-07 18:45:00,
2013-02-07 12:50:00,25.8,24.3,30.17,NE,34,10.0,15.7,94,0.00,,OVC007,0.00,VWS V14.01,2013-02-07 18:50:00,
2013-02-07 12:55:00,26.0,24.5,30.17,NE,37,11.0,13.6,94,0.00,,OVC007,0.00,VWS V14.01,2013-02-07 18:55:00,
2013-02-07 13:00:00,26.0,24.2,30.18,NNE,29,12.0,15.7,93,0.00,,OVC007,0.00,VWS V14.01,2013-02-07 19:00:00,
2013-02-07 13:10:00,26.1,24.3,30.18,NNE,32,10.0,14.7,93,0.00,,OVC009,0.00,VWS V14.01,2013-02-07 19:10:00,
2013-02-07 13:15:00,26.3,24.5,30.18,NNE,18,11.0,13.6,93,0.00,,OVC009,0.00,VWS V14.01,2013-02-07 19:15:00,
2013-02-07 13:20:00,26.3,24.5,30.18,North,10,13.0,14.7,93,0.00,,OVC009,0.00,VWS V14.01,2013-02-07 19:20:00,
2013-02-07 13:25:00,26.3,24.5,30.18,North,355,6.0,13.6,93,0.00,,OVC009,0.00,VWS V14.01,2013-02-07 19:25:00,
2013-02-07 13:30:00,26.3,24.5,30.18,North,355,6.0,6.3,93,0.00,,OVC009,0.00,VWS V14.01,2013-02-07 19:30:00,
2013-02-07 13:40:00,26.7,24.9,30.18,NNW,340,6.0,11.5,93,0.00,,OVC009,0.00,VWS V14.01,2013-02-07 19:40:00,
2013-02-07 13:45:00,26.8,24.8,30.18,North,355,6.0,11.5,92,0.00,,OVC009,0.00,VWS V14.01,2013-02-07 19:45:00,
2013-02-07 13:50:00,26.9,24.9,30.18,North,5,6.0,11.5,92,0.00,,OVC009,0.00,VWS V14.01,2013-02-07 19:50:00,
2013-02-07 13:55:00,26.9,24.9,30.18,NNE,13,8.0,11.5,92,0.00,,OVC009,0.00,VWS V14.01,2013-02-07 19:55:00,
2013-02-07 14:00:00,26.9,24.9,30.18,NNE,26,6.0,12.6,92,0.00,,OVC009,0.00,VWS V14.01,2013-02-07 20:00:00,
2013-02-07 14:05:00,27.0,24.7,30.18,North,355,4.0,10.5,91,0.00,,OVC009,0.00,VWS V14.01,2013-02-07 20:05:00,
2013-02-07 14:10:00,27.1,25.1,30.18,NNW,336,5.0,9.4,92,0.00,,OVC009,0.00,VWS V14.01,2013-02-07 20:10:00,
2013-02-07 14:20:00,27.2,25.2,30.18,NNE,13,7.0,10.5,92,0.00,,OVC009,0.00,VWS V14.01,2013-02-07 20:20:00,
2013-02-07 14:25:00,27.1,24.8,30.18,NNW,341,10.0,12.6,91,0.00,,OVC009,0.00,VWS V14.01,2013-02-07 20:25:00,
2013-02-07 14:30:00,27.1,25.1,30.18,NNW,340,9.0,11.5,92,0.00,,OVC009,0.00,VWS V14.01,2013-02-07 20:30:00,
2013-02-07 14:35:00,27.0,25.0,30.18,NNW,342,7.0,10.5,92,0.00,,OVC009,0.00,VWS V14.01,2013-02-07 20:35:00,
2013-02-07 14:40:00,27.0,25.0,30.18,North,5,6.0,11.5,92,0.00,,OVC009,0.00,VWS V14.01,2013-02-07 20:40:00,
2013-02-07 14:45:00,26.8,24.8,30.18,NNW,340,8.0,14.7,92,0.00,,OVC011,0.00,VWS V14.01,2013-02-07 20:45:00,
2013-02-07 14:50:00,26.9,24.9,30.18,NW,323,7.0,12.6,92,0.00,,OVC011,0.00,VWS V14.01,2013-02-07 20:50:00,
2013-02-07 14:55:00,26.9,24.9,30.18,North,355,9.0,11.5,92,0.00,,OVC011,0.00,VWS V14.01,2013-02-07 20:55:00,
2013-02-07 15:00:00,26.9,24.9,30.18,North,355,6.0,12.6,92,0.00,,OVC011,0.00,VWS V14.01,2013-02-07 21:00:00,
2013-02-07 15:05:00,26.9,24.9,30.18,NE,43,9.0,13.6,92,0.00,,OVC011,0.00,VWS V14.01,2013-02-07 21:05:00,
2013-02-07 15:10:00,26.9,24.6,30.19,North,355,8.0,14.7,91,0.00,,OVC011,0.00,VWS V14.01,2013-02-07 21:10:00,
2013-02-07 15:15:00,26.9,24.6,30.19,NNW,336,10.0,13.6,91,0.00,,OVC011,0.00,VWS V14.01,2013-02-07 21:15:00,
2013-02-07 15:25:00,26.8,24.8,30.19,NNW,341,11.0,15.7,92,0.00,,OVC011,0.00,VWS V14.01,2013-02-07 21:25:00,
2013-02-07 15:35:00,26.6,24.6,30.20,North,360,8.0,12.6,92,0.00,,OVC011,0.00,VWS V14.01,2013-02-07 21:35:00,
2013-02-07 15:40:00,26.5,24.5,30.20,North,355,8.0,11.5,92,0.00,,OVC011,0.00,VWS V14.01,2013-02-07 21:40:00,
2013-02-07 15:50:00,26.2,24.2,30.20,NNW,333,6.0,13.6,92,0.00,,OVC011,0.00,VWS V14.01,2013-02-07 21:50:00,
2013-02-07 15:55:00,26.1,24.1,30.20,NNW,346,12.0,14.7,92,0.00,,OVC011,0.00,VWS V14.01,2013-02-07 21:55:00,
2013-02-07 16:00:00,26.1,24.1,30.20,NW,320,10.0,15.7,92,0.00,,OVC011,0.00,VWS V14.01,2013-02-07 22:00:00,
2013-02-07 16:05:00,26.1,24.1,30.21,NNW,343,6.0,13.6,92,0.00,,OVC011,0.00,VWS V14.01,2013-02-07 22:05:00,
2013-02-07 16:10:00,26.1,24.1,30.20,North,355,8.0,10.5,92,0.00,,OVC011,0.00,VWS V14.01,2013-02-07 22:10:00,
2013-02-07 16:15:00,26.0,24.0,30.20,NNW,330,9.0,12.6,92,0.00,,OVC011,0.00,VWS V14.01,2013-02-07 22:15:00,
2013-02-07 16:20:00,25.9,23.9,30.20,North,5,13.0,13.6,92,0.00,,OVC011,0.00,VWS V14.01,2013-02-07 22:20:00,
2013-02-07 16:25:00,25.8,23.8,30.20,NNW,345,10.0,14.7,92,0.00,,OVC011,0.00,VWS V14.01,2013-02-07 22:25:00,
2013-02-07 16:30:00,25.8,24.0,30.21,North,350,9.0,12.6,93,0.00,,OVC011,0.00,VWS V14.01,2013-02-07 22:30:00,
2013-02-07 16:35:00,25.8,23.8,30.21,NNE,32,6.0,11.5,92,0.00,,OVC011,0.00,VWS V14.01,2013-02-07 22:35:00,
2013-02-07 16:40:00,25.7,23.7,30.22,North,360,8.0,13.6,92,0.00,,OVC011,0.00,VWS V14.01,2013-02-07 22:40:00,
2013-02-07 16:45:00,25.6,23.6,30.22,North,9,11.0,15.7,92,0.00,,OVC011,0.00,VWS V14.01,2013-02-07 22:45:00,
2013-02-07 16:50:00,25.5,23.5,30.23,NNW,347,8.0,14.7,92,0.00,,OVC011,0.00,VWS V14.01,2013-02-07 22:50:00,
2013-02-07 16:55:00,25.5,23.5,30.23,NNW,348,8.0,12.6,92,0.00,,OVC011,0.00,VWS V14.01,2013-02-07 22:55:00,
2013-02-07 17:00:00,25.4,23.4,30.23,NNW,337,7.0,13.6,92,0.00,,OVC011,0.00,VWS V14.01,2013-02-07 23:00:00,
2013-02-07 17:05:00,25.3,23.3,30.23,NNE,13,10.0,11.5,92,0.00,,OVC011,0.00,VWS V14.01,2013-02-07 23:05:00,
2013-02-07 17:15:00,25.3,23.3,30.24,NNW,340,6.0,10.5,92,0.00,,OVC011,0.00,VWS V14.01,2013-02-07 23:15:00,
2013-02-07 17:20:00,25.2,23.2,30.24,NNW,348,7.0,15.7,92,0.00,,OVC011,0.00,VWS V14.01,2013-02-07 23:20:00,
2013-02-07 17:25:00,25.1,23.1,30.24,NE,41,9.0,11.5,92,0.00,,OVC011,0.00,VWS V14.01,2013-02-07 23:25:00,
2013-02-07 17:30:00,25.1,23.1,30.24,North,360,6.0,12.6,92,0.00,,OVC011,0.00,VWS V14.01,2013-02-07 23:30:00,
2013-02-07 17:35:00,25.0,23.0,30.25,NNE,21,6.0,10.5,92,0.00,,OVC011,0.00,VWS V14.01,2013-02-07 23:35:00,
2013-02-07 17:40:00,24.9,22.9,30.25,NNW,336,8.0,12.6,92,0.00,,OVC011,0.00,VWS V14.01,2013-02-07 23:40:00,
2013-02-07 17:45:00,24.9,22.9,30.25,NNW,346,4.0,9.4,92,0.00,,OVC011,0.00,VWS V14.01,2013-02-07 23:45:00,
2013-02-07 17:50:00,24.9,22.9,30.25,North,350,7.0,9.4,92,0.00,,OVC011,0.00,VWS V14.01,2013-02-07 23:50:00,
2013-02-07 17:55:00,24.9,23.1,30.25,NNE,23,4.0,9.4,93,0.00,,OVC011,0.00,VWS V14.01,2013-02-07 23:55:00,
2013-02-07 18:00:00,24.8,22.8,30.25,NNW,346,10.0,11.5,92,0.00,,OVC011,0.00,VWS V14.01,2013-02-08 00:00:00,
2013-02-07 18:05:00,24.8,22.5,30.26,North,355,9.0,14.7,91,0.00,,OVC011,0.00,VWS V14.01,2013-02-08 00:05:00,
2013-02-07 18:10:00,24.8,22.5,30.26,NE,34,10.0,15.7,91,0.00,,OVC011,0.00,VWS V14.01,2013-02-08 00:10:00,
2013-02-07 18:15:00,24.9,22.6,30.27,NW,317,3.0,12.6,91,0.00,,OVC011,0.00,VWS V14.01,2013-02-08 00:15:00,
2013-02-07 18:20:00,24.8,22.5,30.27,NNW,341,5.0,8.4,91,0.00,,OVC011,0.00,VWS V14.01,2013-02-08 00:20:00,
2013-02-07 18:25:00,24.9,22.6,30.27,North,349,8.0,11.5,91,0.00,,OVC011,0.00,VWS V14.01,2013-02-08 00:25:00,
2013-02-07 18:30:00,24.8,22.3,30.27,North,350,5.0,10.5,90,0.00,,OVC011,0.00,VWS V14.01,2013-02-08 00:30:00,
2013-02-07 18:40:00,24.8,22.3,30.27,NNW,345,6.0,11.5,90,0.00,,OVC011,0.00,VWS V14.01,2013-02-08 00:40:00,
2013-02-07 18:45:00,24.8,22.3,30.27,NNE,12,6.0,9.4,90,0.00,,OVC011,0.00,VWS V14.01,2013-02-08 00:45:00,
2013-02-07 18:50:00,24.7,22.4,30.27,NNE,16,8.0,10.5,91,0.00,,OVC011,0.00,VWS V14.01,2013-02-08 00:50:00,
2013-02-07 18:55:00,24.7,22.2,30.28,NE,35,8.0,11.5,90,0.00,,OVC011,0.00,VWS V14.01,2013-02-08 00:55:00,
2013-02-07 19:00:00,24.8,22.0,30.28,NE,42,12.0,13.6,89,0.00,,OVC011,0.00,VWS V14.01,2013-02-08 01:00:00,
2013-02-07 19:05:00,24.9,22.1,30.28,NNW,348,6.0,13.6,89,0.00,,OVC011,0.00,VWS V14.01,2013-02-08 01:05:00,
2013-02-07 19:10:00,24.9,21.8,30.27,North,10,10.0,17.8,88,0.00,,OVC011,0.00,VWS V14.01,2013-02-08 01:10:00,
2013-02-07 19:15:00,24.8,21.7,30.27,NE,35,9.0,15.7,88,0.00,,OVC011,0.00,VWS V14.01,2013-02-08 01:15:00,
2013-02-07 19:20:00,24.7,21.6,30.28,NE,34,8.0,13.6,88,0.00,,OVC011,0.00,VWS V14.01,2013-02-08 01:20:00,
2013-02-07 19:30:00,24.7,21.6,30.28,NNE,22,6.0,11.5,88,0.00,,OVC011,0.00,VWS V14.01,2013-02-08 01:30:00,
2013-02-07 19:35:00,24.7,21.6,30.28,NNE,13,10.0,11.5,88,0.00,,OVC011,0.00,VWS V14.01,2013-02-08 01:35:00,
2013-02-07 19:40:00,24.7,21.6,30.29,NNE,24,8.0,12.6,88,0.00,,OVC011,0.00,VWS V14.01,2013-02-08 01:40:00,
2013-02-07 19:45:00,24.6,21.5,30.29,North,349,5.0,9.4,88,0.00,,OVC013,0.00,VWS V14.01,2013-02-08 01:45:00,
2013-02-07 19:50:00,24.6,21.5,30.29,NNE,32,5.0,8.4,88,0.00,,OVC013,0.00,VWS V14.01,2013-02-08 01:50:00,
2013-02-07 19:55:00,24.5,21.4,30.29,NNE,31,5.0,9.4,88,0.00,,OVC013,0.00,VWS V14.01,2013-02-08 01:55:00,
2013-02-07 20:00:00,24.4,21.6,30.29,NNE,30,7.0,9.4,89,0.00,,OVC013,0.00,VWS V14.01,2013-02-08 02:00:00,
2013-02-07 20:05:00,24.3,21.2,30.29,NE,36,8.0,11.5,88,0.00,,OVC015,0.00,VWS V14.01,2013-02-08 02:05:00,
2013-02-07 20:10:00,24.4,21.1,30.29,NE,47,9.0,13.6,87,0.00,,OVC015,0.00,VWS V14.01,2013-02-08 02:10:00,
2013-02-07 20:15:00,24.4,21.1,30.29,NNE,28,9.0,12.6,87,0.00,,OVC015,0.00,VWS V14.01,2013-02-08 02:15:00,
2013-02-07 20:20:00,24.5,20.9,30.29,NNE,14,7.0,14.7,86,0.00,,OVC015,0.00,VWS V14.01,2013-02-08 02:20:00,
2013-02-07 20:30:00,24.2,20.9,30.29,NE,35,11.0,11.5,87,0.00,,OVC015,0.00,VWS V14.01,2013-02-08 02:30:00,
2013-02-07 20:35:00,24.2,20.9,30.29,NNE,24,5.0,12.6,87,0.00,,OVC015,0.00,VWS V14.01,2013-02-08 02:35:00,
2013-02-07 20:40:00,24.1,20.8,30.30,NE,48,7.0,9.4,87,0.00,,OVC015,0.00,VWS V14.01,2013-02-08 02:40:00,
2013-02-07 20:50:00,24.1,20.5,30.30,NE,41,6.0,10.5,86,0.00,,OVC015,0.00,VWS V14.01,2013-02-08 02:50:00,
2013-02-07 20:55:00,23.9,20.3,30.30,NNE,32,8.0,10.5,86,0.00,,OVC015,0.00,VWS V14.01,2013-02-08 02:55:00,
2013-02-07 21:00:00,23.8,20.2,30.31,NE,49,5.0,12.6,86,0.00,,OVC015,0.00,VWS V14.01,2013-02-08 03:00:00,
2013-02-07 21:10:00,23.8,20.2,30.30,NNE,31,6.0,10.5,86,0.00,,OVC015,0.00,VWS V14.01,2013-02-08 03:10:00,
2013-02-07 21:15:00,23.6,20.0,30.31,NNE,22,6.0,9.4,86,0.00,,OVC015,0.00,VWS V14.01,2013-02-08 03:15:00,
2013-02-07 21:25:00,23.6,20.0,30.31,North,355,5.0,6.3,86,0.00,,OVC015,0.00,VWS V14.01,2013-02-08 03:25:00,
2013-02-07 21:30:00,23.6,20.3,30.31,NNE,28,2.0,5.2,87,0.00,,OVC015,0.00,VWS V14.01,2013-02-08 03:30:00,
2013-02-07 21:35:00,23.6,20.0,30.31,NNE,30,7.0,8.4,86,0.00,,OVC015,0.00,VWS V14.01,2013-02-08 03:35:00,
2013-02-07 21:40:00,23.6,20.0,30.31,NE,41,8.0,11.5,86,0.00,,OVC015,0.00,VWS V14.01,2013-02-08 03:40:00,
2013-02-07 21:45:00,23.7,20.1,30.30,NNE,30,6.0,11.5,86,0.00,,OVC015,0.00,VWS V14.01,2013-02-08 03:45:00,
2013-02-07 21:50:00,23.5,19.9,30.30,NE,50,6.0,8.4,86,0.00,,OVC015,0.00,VWS V14.01,2013-02-08 03:50:00,
2013-02-07 21:55:00,23.4,19.8,30.30,NE,38,5.0,7.3,86,0.00,,OVC015,0.00,VWS V14.01,2013-02-08 03:55:00,
2013-02-07 22:00:00,23.3,19.7,30.30,NE,42,5.0,7.3,86,0.00,,OVC015,0.00,VWS V14.01,2013-02-08 04:00:00,
2013-02-07 22:10:00,23.3,19.7,30.30,NE,41,7.0,8.4,86,0.00,,OVC017,0.00,VWS V14.01,2013-02-08 04:10:00,
2013-02-07 22:15:00,23.3,19.7,30.30,NNE,23,7.0,11.5,86,0.00,,OVC017,0.00,VWS V14.01,2013-02-08 04:15:00,
2013-02-07 22:20:00,23.3,19.7,30.30,NE,36,5.0,8.4,86,0.00,,OVC017,0.00,VWS V14.01,2013-02-08 04:20:00,
2013-02-07 22:25:00,23.2,19.6,30.30,NE,38,6.0,7.3,86,0.00,,OVC019,0.00,VWS V14.01,2013-02-08 04:25:00,
2013-02-07 22:30:00,23.0,19.4,30.30,NE,41,6.0,7.3,86,0.00,,OVC019,0.00,VWS V14.01,2013-02-08 04:30:00,
2013-02-07 22:35:00,22.9,19.3,30.30,NE,43,4.0,7.3,86,0.00,,OVC019,0.00,VWS V14.01,2013-02-08 04:35:00,
2013-02-07 22:40:00,22.7,19.1,30.30,NNE,25,3.0,5.2,86,0.00,,OVC019,0.00,VWS V14.01,2013-02-08 04:40:00,
2013-02-07 22:45:00,22.5,18.9,30.30,NNE,20,0.0,4.2,86,0.00,,OVC019,0.00,VWS V14.01,2013-02-08 04:45:00,
2013-02-07 22:55:00,22.4,18.8,30.31,NNW,347,3.0,5.2,86,0.00,,OVC019,0.00,VWS V14.01,2013-02-08 04:55:00,
2013-02-07 23:05:00,22.4,18.8,30.31,North,5,0.0,2.1,86,0.00,,OVC019,0.00,VWS V14.01,2013-02-08 05:05:00,
2013-02-07 23:10:00,22.2,18.6,30.32,North,360,0.0,0.0,86,0.00,,OVC019,0.00,VWS V14.01,2013-02-08 05:10:00,
2013-02-07 23:15:00,21.9,18.3,30.32,NNW,341,1.0,2.1,86,0.00,,OVC019,0.00,VWS V14.01,2013-02-08 05:15:00,
2013-02-07 23:20:00,21.7,18.1,30.31,NNW,339,0.0,3.1,86,0.00,,OVC019,0.00,VWS V14.01,2013-02-08 05:20:00,
2013-02-07 23:25:00,21.4,17.8,30.32,NNW,339,0.0,0.0,86,0.00,,OVC019,0.00,VWS V14.01,2013-02-08 05:25:00,
2013-02-07 23:30:00,21.1,17.5,30.32,NW,320,0.0,2.1,86,0.00,,OVC019,0.00,VWS V14.01,2013-02-08 05:30:00,
2013-02-07 23:35:00,20.7,17.4,30.32,NW,320,0.0,0.0,87,0.00,,OVC019,0.00,VWS V14.01,2013-02-08 05:35:00,
2013-02-07 23:40:00,20.3,17.0,30.32,NW,320,0.0,0.0,87,0.00,,OVC019,0.00,VWS V14.01,2013-02-08 05:40:00,
2013-02-07 23:45:00,20.3,17.3,30.33,NW,320,0.0,1.0,88,0.00,,OVC019,0.00,VWS V14.01,2013-02-08 05:45:00,
2013-02-07 23:50:00,20.3,17.3,30.32,NW,320,0.0,1.0,88,0.00,,OVC019,0.00,VWS V14.01,2013-02-08 05:50:00,
2013-02-07 23:55:00,20.2,17.2,30.32,NW,320,0.0,0.0,88,0.00,,OVC019,0.00,VWS V14.01,2013-02-08 05:55:00,